TimeEST,TemperatureF,Dew PointF,Humidity,Sea Level PressureIn,VisibilityMPH,Wind Direction,Wind SpeedMPH,Gust SpeedMPH,PrecipitationIn,Events,Conditions,WindDirDegrees,DateUTC
12:34 AM,33.8,30.2,87,29.77,6.0,Calm,Calm,-,N/A,,Overcast,0,2013-02-24 05:34:00
12:43 AM,33.8,30.2,87,29.77,5.0,NW,3.5,-,N/A,,Overcast,320,2013-02-24 05:43:00
12:54 AM,32.0,30.0,92,29.84,5.0,NW,4.6,-,N/A,,Overcast,320,2013-02-24 05:54:00
1:12 AM,32.0,30.2,93,29.78,4.0,NW,4.6,-,N/A,,Overcast,310,2013-02-24 06:12:00
1:36 AM,30.2,28.4,93,29.79,3.0,WSW,3.5,-,N/A,,Overcast,240,2013-02-24 06:36:00
1:47 AM,32.0,30.2,93,29.79,2.5,Calm,Calm,-,N/A,,Overcast,0,2013-02-24 06:47:00
1:54 AM,30.9,30.0,96,29.85,1.8,WSW,3.5,-,N/A,,Overcast,250,2013-02-24 06:54:00
2:04 AM,30.2,30.2,100,29.79,0.8,West,4.6,-,N/A,,Overcast,260,2013-02-24 07:04:00
2:18 AM,30.2,30.2,100,29.79,0.5,Calm,Calm,-,N/A,Fog,Light Freezing Fog,0,2013-02-24 07:18:00
2:29 AM,30.2,30.2,100,29.79,0.8,West,4.6,-,N/A,,Overcast,260,2013-02-24 07:29:00
2:42 AM,30.2,30.2,100,29.79,0.2,West,5.8,-,N/A,Fog,Light Freezing Fog,270,2013-02-24 07:42:00
2:49 AM,30.2,30.2,100,29.79,0.5,WNW,6.9,-,N/A,Fog,Light Freezing Fog,290,2013-02-24 07:49:00
2:50 AM,30.9,30.0,96,29.84,0.5,West,6.9,-,N/A,Fog,Light Freezing Fog,280,2013-02-24 07:50:00
3:26 AM,30.2,28.4,93,29.78,1.5,West,8.1,-,N/A,,Overcast,280,2013-02-24 08:26:00
3:50 AM,28.4,28.4,100,29.77,3.0,WNW,8.1,-,N/A,,Overcast,290,2013-02-24 08:50:00
3:54 AM,28.9,28.0,96,29.83,3.0,WNW,9.2,-,N/A,,Overcast,290,2013-02-24 08:54:00
4:34 AM,28.4,26.6,93,29.78,5.0,West,12.7,-,N/A,,Overcast,280,2013-02-24 09:34:00
4:54 AM,28.0,25.0,88,29.86,5.0,West,11.5,-,N/A,,Overcast,280,2013-02-24 09:54:00
5:54 AM,26.1,23.0,88,29.87,7.0,WNW,16.1,-,N/A,,Overcast,300,2013-02-24 10:54:00
6:12 AM,26.6,21.2,80,29.81,8.0,WNW,16.1,-,N/A,,Overcast,300,2013-02-24 11:12:00
7:54 AM,25.0,19.0,78,29.90,7.0,WNW,17.3,25.3,N/A,,Overcast,290,2013-02-24 12:54:00
8:30 AM,24.8,19.4,80,29.84,4.0,WNW,13.8,-,N/A,,Haze,290,2013-02-24 13:30:00
8:54 AM,25.0,19.9,81,29.91,7.0,West,13.8,23.0,N/A,,Overcast,280,2013-02-24 13:54:00
9:05 AM,24.8,19.4,80,29.84,10.0,West,11.5,25.3,N/A,,Overcast,270,2013-02-24 14:05:00
9:54 AM,25.0,18.0,75,29.92,9.0,West,11.5,21.9,N/A,,Overcast,260,2013-02-24 14:54:00
10:54 AM,25.0,19.0,78,29.92,5.0,West,10.4,-,N/A,,Haze,270,2013-02-24 15:54:00
11:54 AM,25.0,19.9,81,29.93,5.0,West,16.1,24.2,N/A,,Haze,280,2013-02-24 16:54:00
12:54 PM,25.0,19.9,81,29.93,3.0,WNW,15.0,21.9,0.00,Snow,Light Snow,290,2013-02-24 17:54:00
1:10 PM,24.8,19.4,80,29.86,1.8,West,17.3,23.0,0.00,Snow,Light Snow,280,2013-02-24 18:10:00
1:22 PM,24.8,19.4,80,29.86,1.0,West,19.6,27.6,0.00,Snow,Light Snow,280,2013-02-24 18:22:00
1:45 PM,24.8,19.4,80,29.87,1.0,WNW,20.7,27.6,0.00,Snow,Light Snow,300,2013-02-24 18:45:00
1:47 PM,24.8,19.4,80,29.87,0.8,WNW,20.7,27.6,0.00,Snow,Light Snow,300,2013-02-24 18:47:00
1:54 PM,23.0,19.0,85,29.96,0.8,WNW,18.4,28.8,0.00,Snow,Light Snow,300,2013-02-24 18:54:00
2:07 PM,23.0,19.4,86,29.88,1.0,WNW,20.7,-,0.00,Snow,Light Snow,300,2013-02-24 19:07:00
2:21 PM,24.8,19.4,80,29.88,1.8,WNW,17.3,24.2,0.00,Snow,Light Snow,290,2013-02-24 19:21:00
2:41 PM,24.8,19.4,80,29.88,3.0,WNW,15.0,-,0.00,Snow,Light Snow,300,2013-02-24 19:41:00
2:54 PM,24.1,19.0,81,29.96,3.0,WNW,17.3,24.2,0.00,Snow,Light Snow,290,2013-02-24 19:54:00
3:06 PM,24.8,17.6,74,29.89,3.0,West,19.6,27.6,0.00,Snow,Light Snow,280,2013-02-24 20:06:00
3:11 PM,24.8,17.6,74,29.89,1.8,West,17.3,27.6,0.00,Snow,Light Snow,280,2013-02-24 20:11:00
3:37 PM,23.0,19.4,86,29.90,1.0,WNW,15.0,-,0.00,Snow,Light Snow,300,2013-02-24 20:37:00
3:44 PM,23.0,19.4,86,29.90,0.8,WNW,15.0,24.2,0.00,Snow,Light Snow,290,2013-02-24 20:44:00
3:48 PM,23.0,19.4,86,29.91,0.8,West,20.7,27.6,0.00,Snow,Light Snow,280,2013-02-24 20:48:00
3:52 PM,23.0,17.6,80,29.91,1.0,WNW,17.3,27.6,0.00,Snow,Light Snow,290,2013-02-24 20:52:00
3:54 PM,23.0,19.0,85,29.99,1.2,WNW,15.0,27.6,0.00,Snow,Light Snow,300,2013-02-24 20:54:00
4:00 PM,23.0,19.4,86,29.91,3.0,WNW,13.8,25.3,0.00,Snow,Light Snow,290,2013-02-24 21:00:00
4:20 PM,24.8,17.6,74,29.92,6.0,WNW,18.4,23.0,0.00,Snow,Light Snow,300,2013-02-24 21:20:00
4:54 PM,24.1,17.1,75,30.02,5.0,WNW,13.8,21.9,0.00,Snow,Light Snow,290,2013-02-24 21:54:00
5:33 PM,24.8,15.8,69,29.95,9.0,WNW,12.7,18.4,0.00,,Overcast,290,2013-02-24 22:33:00
5:41 PM,24.8,15.8,69,29.95,8.0,WNW,9.2,18.4,0.00,,Overcast,290,2013-02-24 22:41:00
5:54 PM,24.1,16.0,71,30.05,7.0,WNW,10.4,18.4,0.00,Snow,Light Snow,300,2013-02-24 22:54:00
6:11 PM,24.8,15.8,69,29.96,6.0,WNW,10.4,19.6,0.00,Snow,Light Snow,290,2013-02-24 23:11:00
6:24 PM,23.0,15.8,74,29.97,6.0,WNW,11.5,-,0.00,Snow,Light Snow,290,2013-02-24 23:24:00
6:54 PM,24.1,16.0,71,30.08,10.0,WNW,15.0,-,0.00,,Overcast,300,2013-02-24 23:54:00
7:54 PM,23.0,16.0,74,30.10,10.0,WNW,13.8,-,0.00,,Overcast,300,2013-02-25 00:54:00
8:54 PM,23.0,16.0,74,30.11,9.0,WNW,12.7,21.9,0.00,Snow,Light Snow,300,2013-02-25 01:54:00
9:54 PM,23.0,17.1,78,30.11,10.0,WNW,11.5,21.9,0.00,,Overcast,300,2013-02-25 02:54:00
10:54 PM,23.0,18.0,81,30.12,8.0,West,6.9,-,N/A,,Overcast,280,2013-02-25 03:54:00
11:03 PM,23.0,17.6,80,30.02,7.0,West,6.9,-,N/A,,Overcast,260,2013-02-25 04:03:00
11:50 PM,23.0,19.4,86,30.02,8.0,West,5.8,-,0.00,,Overcast,280,2013-02-25 04:50:00
11:54 PM,23.0,19.0,85,30.12,8.0,West,5.8,-,0.00,,Overcast,270,2013-02-25 04:54:00